Simultaneous Nadir Overpasses (SNOs) Predictions

Prediction of SNOs between AQUA and NOAA-19 Satellite Orbit:

Table of predicted SNOs for the next 14.0 days since TLE Epoch: 10/27/2014
Index Date (AQUA) Time (AQUA) Lat,Lon (AQUA) SZA (AQUA ) Date (NOAA-19) Time (NOAA-19) Lat,Lon (NOAA-19) SZA (NOAA-19 ) Distance(km) Time Diff (sec)
1 10/27/2014 16:53:16 -78.70, 84.63 87.91 10/27/2014 16:52:25 -78.71, 84.56 87.88 1.84 51
2 10/27/2014 17:42:36 78.40,-106.12 91.72 10/27/2014 17:43:21 78.41,-106.25 91.73 3.13 45
3 10/29/2014 22:26:58 78.53,-177.90 92.62 10/29/2014 22:27:06 78.54,-177.95 92.62 1.19 8
4 11/01/2014 03:11:19 78.67, 110.32 93.50 11/01/2014 03:10:51 78.67, 110.27 93.51 1.35 28
5 11/01/2014 04:00:37 -78.33, -80.29 86.92 11/01/2014 04:01:42 -78.34, -80.35 86.92 1.65 65
6 11/03/2014 07:55:38 78.76, 38.76 94.30 11/03/2014 07:54:34 78.75, 38.89 94.31 2.88 64
7 11/03/2014 08:44:57 -78.46,-152.02 86.06 11/03/2014 08:45:27 -78.46,-152.02 86.07 0.17 30
8 11/05/2014 13:29:17 -78.63, 136.02 85.17 11/05/2014 13:29:13 -78.63, 136.00 85.17 0.46 4
9 11/07/2014 18:13:36 -78.80, 64.04 84.31 11/07/2014 18:12:59 -78.81, 63.92 84.28 2.87 37
10 11/07/2014 19:02:55 78.47,-126.56 95.29 11/07/2014 19:03:51 78.48,-126.65 95.29 2.19 56
11 11/09/2014 22:57:52 -78.88, -7.48 83.57 11/09/2014 22:56:42 -78.89, -7.52 83.54 1.06 70




NCC Satellite Simultaneous Nadir Overpasses (SNOs) Prediction Service
